User: anonymous   Login
Location: Unspecified
(0.0000°N, 0.0000°E)
Time: 16:12:52
(UTC+01:00)
Language:

OPAL - Orbit

View from above orbital plane
View from above orbital plane
View from above satellite
View from above satellite

Ground track
Ground track

The orbit data is extracted from the following two-line orbital elements,

1 26063U 00004C   16043.98806217  .00000071  00000-0  44131-4 0  9991
2 26063 100.1912 311.6962 0035832 250.5748 109.1559 14.36597663840993
Epoch (UTC): 12 February 2016 23:42:48
Eccentricity: 0.0035832
inclination: 100.1912°
perigee height: 744 km
apogee height: 795 km
right ascension of ascending node: 311.6962°
argument of perigee: 250.5748°
revolutions per day: 14.36597663
mean anomaly at epoch: 109.1559°
orbit number at epoch: 84099

The dashed part of the orbit path shows where the satellite is in the earth's shadow,  

DLR